Regional Weather Roundup
Issued by NWS

Home | Current Version | Previous Version | Text Only | Print | Product List | Glossary On
Versions: 1 2 3 4 5 6 7 8 9 10 11 12 13 14 15 16 17 18 19 20 21 22 23 24 25 26 27 28 29 30 31 32 33 34 35 36 37 38 39 40 41 42 43 44 45 46 47 48 49 50
000
ASUS44 KFWD 120615
RWRTX
NORTH TEXAS HOURLY WEATHER ROUNDUP
NATIONAL WEATHER SERVICE FORT WORTH TX
1200 AM CST FRI FEB 12 2016

NOTE: "FAIR" INDICATES FEW OR NO CLOUDS BELOW 12,000 FEET WITH NO
SIGNIFICANT WEATHER AND/OR OBSTRUCTIONS TO VISIBILITY.

TXZ118-119-120700-
DALLAS/FORT WORTH METROPLEX

CITY           SKY/WX    TMP DP  RH WIND       PRES   REMARKS
DFW AIRPORT    PTCLDY    52  35  52 N8        30.12R
6HR MIN TEMP:  52; 6HR MAX TEMP:  68;

DALLAS LOVE    CLEAR     57  34  41 N3        30.12R
6HR MIN TEMP:  56; 6HR MAX TEMP:  71;

FTW MEACHAM    PTCLDY    55  35  47 N10       30.13R
6HR MIN TEMP:  55; 6HR MAX TEMP:  69;

DAL-EXECUTIVE  CLEAR     57  35  43 NE7       30.12R
6HR MIN TEMP:  55; 6HR MAX TEMP:  69;

FTW-ALLIANCE   CLEAR     48  34  58 CALM      30.13S
6HR MIN TEMP:  42; 6HR MAX TEMP:  68;

FTW-NAS-JRB    PTCLDY    55  35  47 N5        30.14R
6HR MIN TEMP:  53; 6HR MAX TEMP:  71;

FTW-SPINKS     CLEAR     52  37  56 N6        30.14R
6HR MIN TEMP:  47; 6HR MAX TEMP:  71;

ARLINGTON      PTCLDY    55  38  52 N8        30.13R
6HR MIN TEMP:  49; 6HR MAX TEMP:  72;

GRAND PRAIRIE  PTCLDY    54  38  55 N9        30.14R
6HR MIN TEMP:  54; 6HR MAX TEMP:  70;

ADDISON        CLEAR     58  35  42 NE8       30.14S
6HR MIN TEMP:  58; 6HR MAX TEMP:  71;

MESQUITE       CLEAR     52  40  62 N6        30.13R
6HR MIN TEMP:  52; 6HR MAX TEMP:  69;

LANCASTER      PTCLDY    50  33  52 N3        30.13S
6HR MIN TEMP:  50; 6HR MAX TEMP:  73;

$$

TXZ091>094-102>105-117-120-121-131>134-120700-
NORTH CENTRAL TEXAS

CITY           SKY/WX    TMP DP  RH WIND       PRES   REMARKS
SHRMAN/DENISON PTCLDY    49  32  52 NE7       30.17S
6HR MIN TEMP:  48; 6HR MAX TEMP:  63;

GAINESVILLE    PTCLDY    47  32  55 N7        30.18S
6HR MIN TEMP:  44; 6HR MAX TEMP:  63;

BOWIE          CLEAR     49  32  51 CALM      30.15F
6HR MIN TEMP:  48; 6HR MAX TEMP:  65;

BRIDGEPORT     CLEAR     43  36  76 CALM      30.17R
6HR MIN TEMP:  43; 6HR MAX TEMP:  69;

DECATUR        CLEAR     51  32  48 NE6       30.15S
6HR MIN TEMP:  51; 6HR MAX TEMP:  68;

DENTON         PTCLDY    49  34  56 N6        30.14S
6HR MIN TEMP:  48; 6HR MAX TEMP:  63;

MCKINNEY       CLEAR     50  34  54 N7        30.14R
6HR MIN TEMP:  50; 6HR MAX TEMP:  70;

GREENVILLE     CLEAR     52  36  54 NE3       30.14S
ROCKWALL       CLEAR     53  36  53 E5        30.12S
6HR MIN TEMP:  53; 6HR MAX TEMP:  70;

TERRELL        PTCLDY    50  38  63 NE8       30.13R
6HR MIN TEMP:  47; 6HR MAX TEMP:  69;

WAXAHACHIE     PTCLDY    57  38  50 N7        30.13R
6HR MIN TEMP:  57; 6HR MAX TEMP:  74;

CLEBURNE       PTCLDY    55  36  47 N10       30.13S
GRANBURY       CLEAR     47  36  65 CALM      30.14S
6HR MIN TEMP:  47; 6HR MAX TEMP:  72;

$$

TXZ083>090-098>101-113>116-127>130-139>142-154-155-120700-
WESTERN NORTH TEXAS

CITY           SKY/WX    TMP DP  RH WIND       PRES   REMARKS
WICHITA FALLS  PTCLDY    40  33  76 N8        30.18R WCI  34
6HR MIN TEMP:  40; 6HR MAX TEMP:  61;

WF-KICKAPOO    PTCLDY    46  35  64 N6        30.19S
6HR MIN TEMP:  46; 6HR MAX TEMP:  65;

VERNON         CLEAR     44  31  59 N5        30.20R
6HR MIN TEMP:  32; 6HR MAX TEMP:  82;

ABILENE        CLEAR     43  32  65 S3        30.17S
6HR MIN TEMP:  43; 6HR MAX TEMP:  68;

ABILENE-DYESS  CLEAR     47  32  56 W3        30.16S
6HR MIN TEMP:  44; 6HR MAX TEMP:  66;

BRECKENRIDGE   CLEAR     48  32  53 CALM      30.16S
6HR MIN TEMP:  48; 6HR MAX TEMP:  72;

GRAHAM         CLEAR     49  34  56 CALM      30.15R
6HR MIN TEMP:  47; 6HR MAX TEMP:  68;

MINERAL WELLS  PTCLDY    48  33  56 NW6       30.12S
6HR MIN TEMP:  47; 6HR MAX TEMP:  71;

STEPHENVILLE   CLEAR     54  35  47 CALM      30.15S
6HR MIN TEMP:  53; 6HR MAX TEMP:  72;

COMANCHE       CLEAR     54  33  45 NW3       30.14S
6HR MIN TEMP:  54; 6HR MAX TEMP:  78;

BROWNWOOD      PTCLDY    50  32  50 NW7       30.14S
COLEMAN        CLEAR     54  32  43 NW6       30.16S
6HR MIN TEMP:  51; 6HR MAX TEMP:  76;

$$

TXZ143>147-156>162-174-175-120700-
CENTRAL TEXAS

CITY           SKY/WX    TMP DP  RH WIND       PRES   REMARKS
WACO           CLEAR     51  37  58 S7        30.11R
6HR MIN TEMP:  48; 6HR MAX TEMP:  71;

WACO-MCGREGOR  CLEAR     60  39  45 S10       30.11R
6HR MIN TEMP:  55; 6HR MAX TEMP:  77;

HILLSBORO      CLEAR     57  36  45 CALM      30.11S
6HR MIN TEMP:  53; 6HR MAX TEMP:  74;

CORSICANA      PTCLDY    60  38  43 S6        30.12R
6HR MIN TEMP:  59; 6HR MAX TEMP:  75;

MEXIA          CLEAR     56  42  59 S7        30.11S
6HR MIN TEMP:  55; 6HR MAX TEMP:  70;

HEARNE         PTCLDY    57  48  73 SE6       30.15R
6HR MIN TEMP:  56; 6HR MAX TEMP:  75;

CAMERON        PTCLDY    59  48  65 S12       30.12S
6HR MIN TEMP:  59; 6HR MAX TEMP:  73;

TEMPLE         PTCLDY    56  40  55 S10       30.12R
6HR MIN TEMP:  56; 6HR MAX TEMP:  75;

KILLEEN        PTCLDY    65  34  31 S6        30.11R
6HR MIN TEMP:  58; 6HR MAX TEMP:  77;

KILLEEN-SKYLRK CLEAR     61  37  41 SW6       30.12R
6HR MIN TEMP:  59; 6HR MAX TEMP:  78;

FORT HOOD      CLEAR     61  35  37 S1        30.09S
6HR MIN TEMP:  61; 6HR MAX TEMP:  77;

GATESVILLE     PTCLDY    52  36  54 CALM      30.13S
HAMILTON       PTCLDY    53  37  55 NW6       30.13S
6HR MIN TEMP:  51; 6HR MAX TEMP:  78;

LAMPASAS       CLEAR     58  34  40 W6        30.11S
6HR MIN TEMP:  58; 6HR MAX TEMP:  77;

$$

TXZ095>097-106>112-122>126-135>138-148>153-164>167-120700-
EAST TEXAS

CITY           SKY/WX    TMP DP  RH WIND       PRES   REMARKS
PARIS          CLEAR     48  30  49 E8        30.17R
6HR MIN TEMP:  48; 6HR MAX TEMP:  68;

SULPHUR SPRNGS CLEAR     51  39  63 CALM      30.16S
6HR MIN TEMP:  49; 6HR MAX TEMP:  65;

MOUNT PLEASANT CLEAR     49  37  61 NE6       30.17R
6HR MIN TEMP:  49; 6HR MAX TEMP:  71;

GILMER         PTCLDY    52  39  61 NE3       30.14R
6HR MIN TEMP:  51; 6HR MAX TEMP:  72;

MINEOLA        PTCLDY    45  39  81 CALM      30.14R
TYLER          PTCLDY    52  36  54 SE5       30.12S
6HR MIN TEMP:  51; 6HR MAX TEMP:  72;

LONGVIEW       CLEAR     48  39  71 CALM      30.13R
6HR MIN TEMP:  46; 6HR MAX TEMP:  70;

MARSHALL       CLEAR     51  38  61 CALM      30.16R
6HR MIN TEMP:  47; 6HR MAX TEMP:  69;

ATHENS         PTCLDY    45  39  81 CALM      30.11F
PALESTINE      PTCLDY    60  45  59 SE3       30.15R
JACKSONVILLE   CLEAR     60  44  55 S8        30.15S
HENDERSON      PTCLDY    45  40  81 CALM      30.14S
6HR MIN TEMP:  45; 6HR MAX TEMP:  69;

CENTER         FAIR      63  45  52 SW7       30.12S
6HR MIN TEMP:  52; 6HR MAX TEMP:  71;

NACOGDOCHES    PTCLDY    48  43  81 CALM      30.14R
6HR MIN TEMP:  45; 6HR MAX TEMP:  70;

LUFKIN         CLEAR     59  48  67 S10       30.14S
6HR MIN TEMP:  51; 6HR MAX TEMP:  71;

$$

SUPPLEMENTAL OBSERVATIONS (CENTRAL)

CITY           SKY/WX    TMP DP  RH WIND       PRES   REMARKS
LAKE TEXOMA      N/A     52  32  46 N3          N/A
CADDO GRASSLND   N/A     45  34  65 VRB2        N/A
PAT MAYSE LAKE   N/A     50  34  53 NE5         N/A
C1F1C2F2C3F3C4F4C5F5C6F6C7F7C8F8C9!


USA.gov is the U.S. government's official web portal to all federal, state and local government web resources and services.